GW5846 Weather Reports


time (UTC)temp
C
wind
direction
speed
KPH
gust
KPH
rain 1hr
cm
rain 24hr
cm
rain mn
cm
humidity
%
barometer
mb
20260504081639 8 96 0.0 0.0 0.00 0.00 0.00 63 1013.5
20260504081135 8 358 0.0 1.6 0.00 0.00 0.00 64 1013.5
20260504080632 8 111 1.6 1.6 0.00 0.00 0.00 66 1013.1
20260504080128 8 94 0.0 0.0 0.00 0.00 0.00 66 1013.3
20260504050444 8 305 1.6 1.6 0.00 0.00 0.00 65 1013.8
20260504045942 8 37 0.0 0.0 0.00 0.00 0.00 66 1013.7
20260504045437 8 97 0.0 1.6 0.00 0.00 0.00 64 1013.9
20260504044933 8 158 0.0 0.0 0.00 0.00 0.00 64 1013.9
20260504044431 8 166 0.0 1.6 0.00 0.00 0.00 62 1013.9
20260504043928 8 209 1.6 3.2 0.00 0.00 0.00 60 1013.7
20260504043425 8 29 0.0 0.0 0.00 0.00 0.00 60 1013.8
20260504042923 8 162 0.0 0.0 0.00 0.00 0.00 61 1014.0
20260504042419 8 31 0.0 0.0 0.00 0.00 0.00 62 1013.6
20260504041916 9 15 0.0 0.0 0.00 0.00 0.00 61 1013.5
20260504041412 10 292 3.2 3.2 0.00 0.00 0.00 53 1013.6
20260504040908 10 256 0.0 1.6 0.00 0.00 0.00 52 1013.7
20260504040406 10 306 0.0 0.0 0.00 0.00 0.00 52 1013.5
20260504035901 9 337 0.0 1.6 0.00 0.00 0.00 53 1013.6
20260504035359 9 341 0.0 1.6 0.00 0.00 0.00 56 1013.7
20260504034855 9 324 0.0 0.0 0.00 0.00 0.00 56 1013.6
20260504034353 9 349 0.0 0.0 0.00 0.00 0.00 58 1013.6
20260504033850 9 356 0.0 0.0 0.00 0.00 0.00 58 1013.7
20260504033348 9 8 0.0 0.0 0.00 0.00 0.00 53 1013.7
20260504032844 9 353 0.0 0.0 0.00 0.00 0.00 55 1013.6
20260504032342 9 7 0.0 0.0 0.00 0.00 0.00 56 1013.6
20260504031838 9 3 0.0 0.0 0.00 0.00 0.00 52 1013.6
20260504031336 9 336 0.0 0.0 0.00 0.00 0.00 52 1013.7
20260504030832 8 9 0.0 4.8 0.00 0.00 0.00 55 1013.8
20260504030329 8 293 0.0 3.2 0.00 0.00 0.00 58 1013.8
20260504025825 8 3 0.0 3.2 0.00 0.00 0.00 54 1013.6
20260504025322 8 359 0.0 1.6 0.00 0.00 0.00 52 1013.7
20260504024819 9 318 1.6 1.6 0.00 0.00 0.00 54 1013.7
20260504024315 9 297 0.0 1.6 0.00 0.00 0.00 51 1013.6
20260504023812 10 184 0.0 0.0 0.00 0.00 0.00 47 1013.4
20260504023309 10 294 0.0 1.6 0.00 0.00 0.00 46 1013.3
20260504022805 9 331 0.0 0.0 0.00 0.00 0.00 51 1013.3
20260504022302 9 287 4.8 6.4 0.00 0.00 0.00 56 1013.6
20260504021758 10 299 1.6 3.2 0.00 0.00 0.00 48 1013.4
20260504021256 10 301 1.6 1.6 0.00 0.00 0.00 46 1013.3
20260504020752 10 317 1.6 3.2 0.00 0.00 0.00 45 1013.2
20260504020249 9 323 1.6 1.6 0.00 0.00 0.00 50 1013.0
20260504015745 8 306 0.0 0.0 0.00 0.00 0.00 53 1013.0
20260504015242 8 10 0.0 1.6 0.00 0.00 0.00 53 1012.9
20260504014737 8 160 0.0 1.6 0.00 0.00 0.00 48 1013.1
20260504014234 8 310 1.6 1.6 0.00 0.00 0.00 47 1013.2
20260504013732 8 304 1.6 1.6 0.00 0.00 0.00 51 1012.8
20260504013229 9 316 0.0 0.0 0.00 0.00 0.00 50 1012.8
20260504012726 9 294 0.0 1.6 0.00 0.00 0.00 48 1012.9
20260504012224 10 301 1.6 3.2 0.00 0.00 0.00 46 1012.8
20260504011720 9 290 0.0 0.0 0.00 0.00 0.00 47 1012.8
20260504011217 9 267 0.0 0.0 0.00 0.00 0.00 48 1012.7
20260504010713 10 226 0.0 0.0 0.00 0.00 0.00 47 1012.7
20260504010209 10 216 0.0 1.6 0.00 0.00 0.00 45 1012.5
20260504005706 11 190 3.2 3.2 0.00 0.00 0.00 40 1012.6
20260504005203 11 324 1.6 3.2 0.00 0.00 0.00 37 1012.5
20260504004701 11 326 1.6 3.2 0.00 0.00 0.00 37 1012.5
20260504004157 11 333 3.2 3.2 0.00 0.00 0.00 37 1012.5
20260504003653 11 343 1.6 3.2 0.00 0.00 0.00 38 1012.7
20260504003150 11 3 1.6 1.6 0.00 0.00 0.00 41 1012.4
20260504002647 12 296 0.0 1.6 0.00 0.00 0.00 35 1012.4
20260504002145 11 320 0.0 0.0 0.00 0.00 0.00 41 1012.5
20260504001643 11 74 0.0 0.0 0.00 0.00 0.00 42 1012.3
20260504001138 12 25 0.0 0.0 0.00 0.00 0.00 37 1012.4
20260504000636 13 298 0.0 1.6 0.00 0.00 0.00 32 1012.5
20260504000133 12 297 0.0 1.6 0.00 0.00 0.00 32 1012.4
20260503235631 13 297 0.0 0.0 0.00 0.00 0.00 34 1012.3
20260503235127 13 288 0.0 0.0 0.00 0.00 0.00 31 1012.2
20260503234626 13 310 0.0 0.0 0.00 0.00 0.00 34 1012.4
20260503234123 14 310 0.0 0.0 0.00 0.00 0.00 31 1012.5
20260503233620 14 326 0.0 0.0 0.00 0.00 0.00 29 1012.2
20260503233116 15 355 0.0 1.6 0.00 0.00 0.00 29 1012.3
20260503232613 15 288 3.2 6.4 0.00 0.00 0.00 28 1012.3
20260503232110 15 344 0.0 1.6 0.00 0.00 0.00 28 1012.2
20260503231608 15 21 0.0 0.0 0.00 0.00 0.00 27 1012.3
20260503231104 15 300 1.6 3.2 0.00 0.00 0.00 28 1012.1
20260503230601 16 259 0.0 4.8 0.00 0.00 0.00 25 1012.2
20260503230059 16 162 0.0 1.6 0.00 0.00 0.00 25 1012.3
20260503225555 16 245 1.6 1.6 0.00 0.00 0.00 24 1012.2
20260503225050 16 49 1.6 4.8 0.00 0.00 0.00 24 1012.2
20260503224548 17 298 1.6 1.6 0.00 0.00 0.00 25 1012.0
20260503224046 17 172 0.0 3.2 0.00 0.00 0.00 23 1012.3
20260503223544 18 208 0.0 1.6 0.00 0.00 0.00 22 1012.0
20260503223039 17 27 0.0 3.2 0.00 0.00 0.00 24 1012.0
20260503222537 17 315 0.0 4.8 0.00 0.00 0.00 25 1012.1
20260503222035 17 327 1.6 11.3 0.00 0.00 0.00 24 1012.0
20260503221533 17 254 3.2 6.4 0.00 0.00 0.00 25 1012.0
20260503221030 16 48 6.4 14.5 0.00 0.00 0.00 25 1012.1
20260503220526 17 111 4.8 9.7 0.00 0.00 0.00 24 1012.4
20260503220023 18 127 3.2 3.2 0.00 0.00 0.00 23 1012.2
20260503215520 18 336 1.6 1.6 0.00 0.00 0.00 22 1012.2
20260503215017 17 227 1.6 1.6 0.00 0.00 0.00 23 1012.1
20260503214516 17 357 0.0 3.2 0.00 0.00 0.00 26 1012.2
20260503214012 17 320 6.4 12.9 0.00 0.00 0.00 25 1012.3
20260503213511 17 354 9.7 14.5 0.00 0.00 0.00 27 1012.2
20260503213007 17 221 3.2 9.7 0.00 0.00 0.00 27 1012.3
20260503212504 17 284 1.6 1.6 0.00 0.00 0.00 25 1012.3
20260503212002 17 328 1.6 3.2 0.00 0.00 0.00 25 1012.3
20260503211458 17 274 3.2 6.4 0.00 0.00 0.00 26 1012.3
20260503210954 17 278 3.2 9.7 0.00 0.00 0.00 25 1012.3
20260503210451 17 303 1.6 11.3 0.00 0.00 0.00 26 1012.3
20260503205951 16 326 3.2 6.4 0.00 0.00 0.00 25 1012.3
20260503205449 16 279 6.4 14.5 0.00 0.00 0.00 25 1012.6
20260503204945 16 209 1.6 11.3 0.00 0.00 0.00 25 1012.5
20260503204442 16 65 3.2 14.5 0.00 0.00 0.00 26 1012.6
20260503203939 16 290 3.2 12.9 0.00 0.00 0.00 27 1012.7
20260503203437 17 308 4.8 4.8 0.00 0.00 0.00 25 1012.5
20260503202933 16 301 6.4 11.3 0.00 0.00 0.00 25 1012.5
20260503202431 17 284 11.3 16.1 0.00 0.00 0.00 28 1012.6
20260503201930 17 356 3.2 6.4 0.00 0.00 0.00 28 1012.7
20260503201426 16 320 4.8 11.3 0.00 0.00 0.00 25 1012.7
20260503200924 16 11 1.6 6.4 0.00 0.00 0.00 27 1012.8
20260503200420 16 214 6.4 11.3 0.00 0.00 0.00 26 1013.0
20260503195917 16 22 3.2 17.7 0.00 0.00 0.00 27 1013.2
20260503195414 16 285 3.2 12.9 0.00 0.00 0.00 26 1013.0
20260503194911 16 100 4.8 9.7 0.00 0.00 0.00 28 1013.2
20260503194407 16 259 6.4 11.3 0.00 0.00 0.00 26 1013.1
20260503193903 15 23 3.2 6.4 0.00 0.00 0.00 29 1013.4
20260503193359 16 301 4.8 9.7 0.00 0.00 0.00 28 1013.3
20260503192854 16 211 3.2 6.4 0.00 0.00 0.00 29 1013.5
20260503192350 16 308 6.4 9.7 0.00 0.00 0.00 29 1013.4
20260503191847 15 296 3.2 11.3 0.00 0.00 0.00 28 1013.6
20260503191344 15 43 4.8 6.4 0.00 0.00 0.00 30 1013.5
20260503190841 15 71 3.2 11.3 0.00 0.00 0.00 28 1013.9
20260503190338 15 23 4.8 6.4 0.00 0.00 0.00 32 1013.9
20260503185835 16 111 3.2 11.3 0.00 0.00 0.00 33 1013.9
20260503185331 15 136 0.0 6.4 0.00 0.00 0.00 37 1014.0
20260503184826 15 127 0.0 4.8 0.00 0.00 0.00 31 1014.3
20260503184322 15 8 4.8 22.5 0.00 0.00 0.00 33 1014.2
20260503183818 15 292 4.8 6.4 0.00 0.00 0.00 30 1014.4
20260503183315 15 126 1.6 3.2 0.00 0.00 0.00 31 1014.3
20260503182813 14 34 3.2 9.7 0.00 0.00 0.00 32 1014.5
20260503182312 14 322 6.4 9.7 0.00 0.00 0.00 33 1014.6
20260503181809 14 302 8.0 20.9 0.00 0.00 0.00 32 1014.6
20260503181306 13 172 1.6 16.1 0.00 0.00 0.00 33 1014.5
20260503180802 14 41 6.4 9.7 0.00 0.00 0.00 33 1014.6
20260503180300 13 18 1.6 6.4 0.00 0.00 0.00 35 1014.6
20260503175756 13 344 6.4 9.7 0.00 0.00 0.00 36 1014.4
20260503175254 13 274 3.2 9.7 0.00 0.00 0.00 39 1014.6
20260503174749 13 337 4.8 12.9 0.00 0.00 0.00 34 1014.7
20260503174248 13 284 12.9 16.1 0.00 0.00 0.00 34 1014.6
20260503173748 13 29 1.6 6.4 0.00 0.00 0.00 34 1014.6
20260503173244 12 18 4.8 11.3 0.00 0.00 0.00 36 1014.7
20260503172741 12 164 6.4 14.5 0.00 0.00 0.00 38 1014.7
20260503172238 12 328 11.3 17.7 0.00 0.00 0.00 39 1014.8
20260503171734 12 281 6.4 11.3 0.00 0.00 0.00 35 1015.0
20260503171231 13 27 4.8 9.7 0.00 0.00 0.00 35 1014.9
20260503170728 12 50 1.6 6.4 0.00 0.00 0.00 36 1015.0
20260503170225 12 307 3.2 11.3 0.00 0.00 0.00 37 1015.2
20260503160147 11 14 9.7 12.9 0.00 0.00 0.00 39 1015.8
20260503150617 10 36 6.4 14.5 0.00 0.00 0.00 43 1016.2
20260503150113 10 107 6.4 6.4 0.00 0.00 0.00 43 1016.1
20260503131007 7 27 6.4 11.3 0.00 0.00 0.00 48 1015.9
20260503130504 7 20 1.6 6.4 0.00 0.00 0.00 49 1016.0
20260503110400 5 305 0.0 0.0 0.00 0.00 0.00 68 1015.0
20260503090252 4 64 6.4 6.4 0.00 0.00 0.00 67 1013.4